| Back to River Map | <<< Previous Forecast Point | | | Next Forecast Point >>> | Printer Version | Graph Version |  |
|
TRINITY RIVER - HOOPA (HOOC1)
| Latitude: 41.05º N | Longitude: 123.68º W | Elevation: 333 Feet | | Forecast Type: Official Location |
| Location: Humboldt County in California | Bulletin Group: North Coast | River Group: Klamath |
| Issuance Time: | May 06 2026 at 7:26 AM PDT | Next Issuance: | May 07 2026 at 9:00 AM PDT
| |
| Action/Monitor: 44.0 Feet | Minor Flood: 48.0 Feet | Moderate Flood: 52.0 Feet | Major Flood: 56.0 Feet |
# Tabular Observed and Forecast Hydrograph Information
#
# Location: Trinity River - Hoopa (HOOC1)
#
# File Generation Time: 05/06/2026 at 07:26 AM PDT
# Data Interval: 1 Hour
#
# Most Recent Date & Time of Maximum Observed: 05/01/2026 at 08:00 PM PDT
# Maximum Observed Stage: 14.95 Feet
# Maximum Observed Flow: 4077 cfs
#
# Earliest Date & Time of Maximum Forecast: 05/06/2026 at 08:00 AM PDT
# Maximum Forecast Stage: 14.56 Feet
# Maximum Forecast Flow: 3558 cfs
#
# OBSERVED
#
# Date & Time (Local) Stage (Feet) Flow (cfs) Trend Observed Status
# ---------------------------------------------------------------------------------
05/01/2026 07 AM PDT 14.95 4077 Normal
05/01/2026 08 AM PDT 14.94 4063 - Normal
05/01/2026 09 AM PDT 14.93 4049 - Normal
05/01/2026 10 AM PDT 14.93 4049 0 Normal
05/01/2026 11 AM PDT 14.92 4036 - Normal
05/01/2026 12 PM PDT 14.91 4022 - Normal
05/01/2026 01 PM PDT 14.93 4049 + Normal
05/01/2026 02 PM PDT 14.94 4063 + Normal
05/01/2026 03 PM PDT 14.93 4049 - Normal
05/01/2026 04 PM PDT 14.93 4049 0 Normal
05/01/2026 05 PM PDT 14.95 4077 + Normal
05/01/2026 06 PM PDT 14.95 4077 0 Normal
05/01/2026 07 PM PDT 14.94 4063 - Normal
05/01/2026 08 PM PDT 14.95 4077 + Normal
05/01/2026 09 PM PDT 14.93 4049 - Normal
05/01/2026 10 PM PDT 14.92 4036 - Normal
05/01/2026 11 PM PDT 14.89 3995 - Normal
05/02/2026 12 AM PDT 14.90 4008 + Normal
05/02/2026 01 AM PDT 14.87 3968 - Normal
05/02/2026 02 AM PDT 14.87 3968 0 Normal
05/02/2026 03 AM PDT 14.84 3927 - Normal
05/02/2026 04 AM PDT 14.84 3927 0 Normal
05/02/2026 05 AM PDT 14.83 3913 - Normal
05/02/2026 06 AM PDT 14.84 3927 + Normal
05/02/2026 07 AM PDT 14.83 3913 - Normal
05/02/2026 08 AM PDT 14.83 3913 0 Normal
05/02/2026 09 AM PDT 14.83 3913 0 Normal
05/02/2026 10 AM PDT 14.83 3913 0 Normal
05/02/2026 11 AM PDT 14.83 3913 0 Normal
05/02/2026 12 PM PDT 14.85 3940 + Normal
05/02/2026 01 PM PDT 14.85 3940 0 Normal
05/02/2026 02 PM PDT 14.84 3927 - Normal
05/02/2026 03 PM PDT 14.87 3968 + Normal
05/02/2026 04 PM PDT 14.86 3954 - Normal
05/02/2026 05 PM PDT 14.84 3927 - Normal
05/02/2026 06 PM PDT 14.84 3927 0 Normal
05/02/2026 07 PM PDT 14.84 3927 0 Normal
05/02/2026 08 PM PDT 14.82 3900 - Normal
05/02/2026 09 PM PDT 14.84 3927 + Normal
05/02/2026 10 PM PDT 14.83 3913 - Normal
05/02/2026 11 PM PDT 14.82 3900 - Normal
05/03/2026 12 AM PDT 14.82 3900 0 Normal
05/03/2026 01 AM PDT 14.80 3873 - Normal
05/03/2026 02 AM PDT 14.81 3886 + Normal
05/03/2026 03 AM PDT 14.81 3886 0 Normal
05/03/2026 04 AM PDT 14.80 3873 - Normal
05/03/2026 05 AM PDT 14.77 3833 - Normal
05/03/2026 06 AM PDT 14.77 3833 0 Normal
05/03/2026 07 AM PDT 14.75 3806 - Normal
05/03/2026 08 AM PDT 14.76 3820 + Normal
05/03/2026 09 AM PDT 14.75 3806 - Normal
05/03/2026 10 AM PDT 14.74 3793 - Normal
05/03/2026 11 AM PDT 14.76 3820 + Normal
05/03/2026 12 PM PDT 14.78 3846 + Normal
05/03/2026 01 PM PDT 14.77 3833 - Normal
05/03/2026 02 PM PDT 14.78 3846 + Normal
05/03/2026 03 PM PDT 14.79 3860 + Normal
05/03/2026 04 PM PDT 14.81 3886 + Normal
05/03/2026 05 PM PDT 14.79 3860 - Normal
05/03/2026 06 PM PDT 14.80 3873 + Normal
05/03/2026 07 PM PDT 14.81 3886 + Normal
05/03/2026 08 PM PDT 14.79 3860 - Normal
05/03/2026 09 PM PDT 14.78 3846 - Normal
05/03/2026 10 PM PDT 14.80 3873 + Normal
05/03/2026 11 PM PDT 14.78 3846 - Normal
05/04/2026 12 AM PDT 14.77 3833 - Normal
05/04/2026 01 AM PDT 14.76 3820 - Normal
05/04/2026 02 AM PDT 14.76 3820 0 Normal
05/04/2026 03 AM PDT 14.78 3846 + Normal
05/04/2026 04 AM PDT 14.79 3860 + Normal
05/04/2026 05 AM PDT 14.76 3820 - Normal
05/04/2026 06 AM PDT 14.77 3833 + Normal
05/04/2026 07 AM PDT 14.77 3833 0 Normal
05/04/2026 08 AM PDT 14.76 3820 - Normal
05/04/2026 09 AM PDT 14.76 3820 0 Normal
05/04/2026 10 AM PDT 14.76 3820 0 Normal
05/04/2026 11 AM PDT 14.76 3820 0 Normal
05/04/2026 12 PM PDT 14.76 3820 0 Normal
05/04/2026 01 PM PDT 14.78 3846 + Normal
05/04/2026 02 PM PDT 14.79 3860 + Normal
05/04/2026 03 PM PDT 14.81 3886 + Normal
05/04/2026 04 PM PDT 14.81 3886 0 Normal
05/04/2026 05 PM PDT 14.80 3873 - Normal
05/04/2026 06 PM PDT 14.82 3900 + Normal
05/04/2026 07 PM PDT 14.80 3873 - Normal
05/04/2026 08 PM PDT 14.81 3886 + Normal
05/04/2026 09 PM PDT 14.80 3873 - Normal
05/04/2026 10 PM PDT 14.80 3873 0 Normal
05/04/2026 11 PM PDT 14.76 3820 - Normal
05/05/2026 12 AM PDT 14.76 3820 0 Normal
05/05/2026 01 AM PDT 14.75 3806 - Normal
05/05/2026 02 AM PDT 14.74 3793 - Normal
05/05/2026 03 AM PDT 14.74 3793 0 Normal
05/05/2026 04 AM PDT 14.71 3753 - Normal
05/05/2026 05 AM PDT 14.71 3753 0 Normal
05/05/2026 06 AM PDT 14.70 3740 - Normal
05/05/2026 07 AM PDT 14.71 3753 + Normal
05/05/2026 08 AM PDT 14.70 3740 - Normal
05/05/2026 09 AM PDT 14.70 3740 0 Normal
05/05/2026 10 AM PDT 14.69 3727 - Normal
05/05/2026 11 AM PDT 14.70 3740 + Normal
05/05/2026 12 PM PDT 14.72 3766 + Normal
05/05/2026 01 PM PDT 14.72 3766 0 Normal
05/05/2026 02 PM PDT 14.72 3766 0 Normal
05/05/2026 03 PM PDT 14.71 3753 - Normal
05/05/2026 04 PM PDT 14.72 3766 + Normal
05/05/2026 05 PM PDT 14.72 3766 0 Normal
05/05/2026 06 PM PDT 14.70 3740 - Normal
05/05/2026 07 PM PDT 14.70 3740 0 Normal
05/05/2026 08 PM PDT 14.70 3740 0 Normal
05/05/2026 09 PM PDT 14.70 3740 0 Normal
05/05/2026 10 PM PDT 14.69 3727 - Normal
05/05/2026 11 PM PDT 14.66 3688 - Normal
05/06/2026 12 AM PDT 14.63 3648 - Normal
05/06/2026 01 AM PDT 14.60 3610 - Normal
05/06/2026 02 AM PDT 14.63 3648 + Normal
05/06/2026 03 AM PDT 14.60 3610 - Normal
05/06/2026 04 AM PDT 14.60 3610 0 Normal
05/06/2026 05 AM PDT 14.59 3597 - Normal
05/06/2026 06 AM PDT 14.58 3584 - Normal
05/06/2026 07 AM PDT 14.57 3571 - Normal
#
# FORECAST
#
# Date & Time (Local) Stage (Feet) Flow (cfs) Trend Forecast Status
# ---------------------------------------------------------------------------------
05/06/2026 08 AM PDT 14.56 3558 Normal
05/06/2026 09 AM PDT 14.56 3558 0 Normal
05/06/2026 10 AM PDT 14.55 3545 - Normal
05/06/2026 11 AM PDT 14.54 3532 - Normal
05/06/2026 12 PM PDT 14.53 3520 - Normal
05/06/2026 01 PM PDT 14.52 3507 - Normal
05/06/2026 02 PM PDT 14.52 3507 0 Normal
05/06/2026 03 PM PDT 14.52 3507 0 Normal
05/06/2026 04 PM PDT 14.53 3520 + Normal
05/06/2026 05 PM PDT 14.53 3520 0 Normal
05/06/2026 06 PM PDT 14.53 3520 0 Normal
05/06/2026 07 PM PDT 14.53 3520 0 Normal
05/06/2026 08 PM PDT 14.52 3507 - Normal
05/06/2026 09 PM PDT 14.52 3507 0 Normal
05/06/2026 10 PM PDT 14.51 3494 - Normal
05/06/2026 11 PM PDT 14.51 3494 0 Normal
05/07/2026 12 AM PDT 14.51 3494 0 Normal
05/07/2026 01 AM PDT 14.50 3481 - Normal
05/07/2026 02 AM PDT 14.50 3481 0 Normal
05/07/2026 03 AM PDT 14.49 3469 - Normal
05/07/2026 04 AM PDT 14.49 3469 0 Normal
05/07/2026 05 AM PDT 14.48 3456 - Normal
05/07/2026 06 AM PDT 14.48 3456 0 Normal
05/07/2026 07 AM PDT 14.47 3443 - Normal
05/07/2026 08 AM PDT 14.47 3443 0 Normal
05/07/2026 09 AM PDT 14.47 3443 0 Normal
05/07/2026 10 AM PDT 14.46 3431 - Normal
05/07/2026 11 AM PDT 14.46 3431 0 Normal
05/07/2026 12 PM PDT 14.46 3431 0 Normal
05/07/2026 01 PM PDT 14.46 3431 0 Normal
05/07/2026 02 PM PDT 14.46 3431 0 Normal
05/07/2026 03 PM PDT 14.45 3418 - Normal
05/07/2026 04 PM PDT 14.45 3418 0 Normal
05/07/2026 05 PM PDT 14.45 3418 0 Normal
05/07/2026 06 PM PDT 14.45 3418 0 Normal
05/07/2026 07 PM PDT 14.45 3418 0 Normal
05/07/2026 08 PM PDT 14.45 3418 0 Normal
05/07/2026 09 PM PDT 14.45 3418 0 Normal
05/07/2026 10 PM PDT 14.45 3418 0 Normal
05/07/2026 11 PM PDT 14.44 3406 - Normal
05/08/2026 12 AM PDT 14.44 3406 0 Normal
05/08/2026 01 AM PDT 14.44 3406 0 Normal
05/08/2026 02 AM PDT 14.44 3406 0 Normal
05/08/2026 03 AM PDT 14.44 3406 0 Normal
05/08/2026 04 AM PDT 14.44 3406 0 Normal
05/08/2026 05 AM PDT 14.44 3406 0 Normal
05/08/2026 06 AM PDT 14.44 3406 0 Normal
05/08/2026 07 AM PDT 14.43 3393 - Normal
05/08/2026 08 AM PDT 14.43 3393 0 Normal
05/08/2026 09 AM PDT 14.43 3393 0 Normal
05/08/2026 10 AM PDT 14.43 3393 0 Normal
05/08/2026 11 AM PDT 14.43 3393 0 Normal
05/08/2026 12 PM PDT 14.43 3393 0 Normal
05/08/2026 01 PM PDT 14.43 3393 0 Normal
05/08/2026 02 PM PDT 14.43 3393 0 Normal
05/08/2026 03 PM PDT 14.42 3381 - Normal
05/08/2026 04 PM PDT 14.42 3381 0 Normal
05/08/2026 05 PM PDT 14.42 3381 0 Normal
05/08/2026 06 PM PDT 14.42 3381 0 Normal
05/08/2026 07 PM PDT 14.42 3381 0 Normal
05/08/2026 08 PM PDT 14.42 3381 0 Normal
05/08/2026 09 PM PDT 14.42 3381 0 Normal
05/08/2026 10 PM PDT 14.42 3381 0 Normal
05/08/2026 11 PM PDT 14.41 3368 - Normal
05/09/2026 12 AM PDT 14.41 3368 0 Normal
05/09/2026 01 AM PDT 14.41 3368 0 Normal
05/09/2026 02 AM PDT 14.41 3368 0 Normal
05/09/2026 03 AM PDT 14.41 3368 0 Normal
05/09/2026 04 AM PDT 14.41 3368 0 Normal
05/09/2026 05 AM PDT 14.41 3368 0 Normal
05/09/2026 06 AM PDT 14.41 3368 0 Normal
05/09/2026 07 AM PDT 14.41 3368 0 Normal
05/09/2026 08 AM PDT 14.40 3356 - Normal
05/09/2026 09 AM PDT 14.40 3356 0 Normal
05/09/2026 10 AM PDT 14.40 3356 0 Normal
05/09/2026 11 AM PDT 14.40 3356 0 Normal
05/09/2026 12 PM PDT 14.40 3356 0 Normal
05/09/2026 01 PM PDT 14.40 3356 0 Normal
05/09/2026 02 PM PDT 14.40 3356 0 Normal
05/09/2026 03 PM PDT 14.40 3356 0 Normal
05/09/2026 04 PM PDT 14.40 3356 0 Normal
05/09/2026 05 PM PDT 14.39 3343 - Normal
05/09/2026 06 PM PDT 14.39 3343 0 Normal
05/09/2026 07 PM PDT 14.39 3343 0 Normal
05/09/2026 08 PM PDT 14.39 3343 0 Normal
05/09/2026 09 PM PDT 14.39 3343 0 Normal
05/09/2026 10 PM PDT 14.39 3343 0 Normal
05/09/2026 11 PM PDT 14.39 3343 0 Normal
05/10/2026 12 AM PDT 14.39 3343 0 Normal
05/10/2026 01 AM PDT 14.39 3343 0 Normal
05/10/2026 02 AM PDT 14.38 3331 - Normal
05/10/2026 03 AM PDT 14.38 3331 0 Normal
05/10/2026 04 AM PDT 14.38 3331 0 Normal
05/10/2026 05 AM PDT 14.38 3331 0 Normal
05/10/2026 06 AM PDT 14.38 3331 0 Normal
05/10/2026 07 AM PDT 14.38 3331 0 Normal
05/10/2026 08 AM PDT 14.38 3331 0 Normal
05/10/2026 09 AM PDT 14.38 3331 0 Normal
05/10/2026 10 AM PDT 14.38 3331 0 Normal
05/10/2026 11 AM PDT 14.38 3331 0 Normal
05/10/2026 12 PM PDT 14.37 3319 - Normal
05/10/2026 01 PM PDT 14.37 3319 0 Normal
05/10/2026 02 PM PDT 14.37 3319 0 Normal
05/10/2026 03 PM PDT 14.37 3319 0 Normal
05/10/2026 04 PM PDT 14.37 3319 0 Normal
05/10/2026 05 PM PDT 14.37 3319 0 Normal
05/10/2026 06 PM PDT 14.37 3319 0 Normal
05/10/2026 07 PM PDT 14.37 3319 0 Normal
05/10/2026 08 PM PDT 14.37 3319 0 Normal
05/10/2026 09 PM PDT 14.37 3319 0 Normal
05/10/2026 10 PM PDT 14.36 3306 - Normal
05/10/2026 11 PM PDT 14.36 3306 0 Normal
05/11/2026 12 AM PDT 14.36 3306 0 Normal
05/11/2026 01 AM PDT 14.36 3306 0 Normal
05/11/2026 02 AM PDT 14.36 3306 0 Normal
05/11/2026 03 AM PDT 14.36 3306 0 Normal
05/11/2026 04 AM PDT 14.36 3306 0 Normal
05/11/2026 05 AM PDT 14.36 3306 0 Normal
#
# NOTE 1: Stages are rounded to the nearest hundredth (.01) of a foot.
# NOTE 2: Flows are rounded to the nearest (1) cfs.
# NOTE 3: Trends are determined using hourly change in unrounded stage and flow.
# NOTE 4: Maximum Values are determined using unrounded stage and flow.
|